Location: ??
(35.5052°N, 139.7262°E)
Time: 17:36:16
(UTC+00:00)

Meteor 1-29 - Pass Details

Date: 20 June 2021
Orbit: 434 x 457 km, 97.7° (Epoch: 30 July)

Event Time Altitude Azimuth Distance (km) Brightness Sun altitude
Rises 16:57:05 0° 9° (N) 2,468 7.7 -23.0°
Reaches altitude 10° 16:59:08 10° 7° (N) 1,588 6.5 -22.8°
Enters shadow 17:01:54 54° 345° (NNW) 552 3.4 -22.5°
